{"data":{"norad_id":57122,"intl_designator":"2023-090X","name":"STARLINK-6149","alt_names":[],"object_type":"PAYLOAD","status":"ACTIVE","operator":null,"country":"US","launch_date":"2023-06-23","launch_site_code":"AFETR","launch_vehicle":null,"mission":null,"orbit_class":"UNKNOWN","rcs_meters":null,"size_class":null,"mass_kg":null,"dimensions":null,"purposes":["comms"],"wikipedia_slug":null,"has_3d_model":false,"image_url":null,"decayed_at":null,"tle_current":{"epoch":"2026-05-25T05:22:43.055616Z","epoch_age_seconds":49642,"freshness":"FRESH","line1":"1 57122U 23090X   26145.22410944  .00003113  00000+0  12267-3 0  9993","line2":"2 57122  43.0008 209.6405 0001158 276.3628  83.7092 15.27556127162031","mean_motion":15.27556127,"eccentricity":0.0001158,"inclination_deg":43.0008,"raan_deg":209.6405,"arg_perigee_deg":276.3628,"mean_anomaly_deg":83.7092,"bstar":0.00012267,"rev_number":16203,"period_min":94.268221936175,"perigee_km":482.32604769298,"apogee_km":483.91511494881,"semimajor_km":6861.2575813209,"source":"CELESTRAK","updated_at":"2026-05-25T13:38:18.243562Z"}}}